"Time","Temp","Dewpoint","Humidity","Pressure","Direction","Speed","Gust","Precip","PrecipRate"
"00:04:59","70.5","64.5","81.3","29.95","195","0","0","0.00","0.00"
"00:09:59","70.3","64.3","81.3","29.95","195","0","0","0.00","0.00"
"00:14:59","70.1","64.4","82.3","29.95","195","0","0","0.00","0.00"
"00:19:57","69.8","64.4","83","29.95","195","0","0","0.00","0.00"
"00:24:55","69.5","64.1","83","29.95","195","0","0","0.00","0.00"
"00:29:59","69.3","64.1","83.5","29.95","195","0","0","0.00","0.00"
"00:34:57","69","64","84","29.95","195","0","0","0.00","0.00"
"00:39:57","68.8","63.9","84.3","29.95","195","0","0","0.00","0.00"
"00:44:56","68.6","63.9","85","29.95","195","0","0","0.00","0.00"
"00:49:56","68.5","63.8","85","29.95","195","0","0","0.00","0.00"
"00:54:59","68.4","64","85.9","29.95","195","0","0","0.00","0.00"
"00:59:58","68.4","64","86","29.95","195","0","0","0.00","0.00"
"01:04:57","68.3","63.9","86","29.95","195","0","0","0.00","0.00"
"01:09:56","68.1","63.8","86","29.95","195","0","0","0.00","0.00"
"01:14:59","67.9","63.9","86.8","29.95","195","0","0","0.00","0.00"
"01:19:59","67.8","63.8","87","29.95","195","0","0","0.00","0.00"
"01:24:58","67.7","63.7","87","29.95","195","0","0","0.00","0.00"
"01:29:57","67.5","63.8","87.9","29.95","195","0","0","0.00","0.00"
"01:34:56","67.4","63.7","88.2","29.95","195","0","0","0.00","0.00"
"01:39:56","67.3","63.8","88.7","29.95","195","0","0","0.00","0.00"
"01:44:59","67.2","63.8","89","29.95","195","0","0","0.00","0.00"
"01:49:58","67","63.6","89","29.95","195","0","0","0.00","0.00"
"01:54:57","66.9","63.6","89","29.95","195","0","0","0.00","0.00"
"01:59:56","66.7","63.6","89.5","29.96","195","0","0","0.00","0.00"
"02:04:56","66.7","63.4","89","29.96","195","0","0","0.00","0.00"
"02:09:58","66.6","63.6","90","29.96","195","0","0","0.00","0.00"
"02:14:58","66.5","63.5","90","29.96","195","0","0","0.00","0.00"
"02:19:57","66.4","63.4","90","29.96","195","0","0","0.00","0.00"
"02:24:56","66.3","63.5","90.8","29.96","195","0","0","0.00","0.00"
"02:29:59","66.2","63.5","91","29.96","195","0","0","0.00","0.00"
"02:34:58","66.1","63.2","90.4","29.96","195","0","0","0.00","0.00"
"02:39:58","66.1","63.2","90.2","29.96","195","0","0","0.00","0.00"
"02:44:57","66.1","63.4","91","29.96","195","0","0","0.00","0.00"
"02:49:56","66.2","63.5","91","29.95","195","0","0","0.00","0.00"
"02:54:59","66.2","63.5","91","29.95","195","0","0","0.00","0.00"
"02:59:58","66.1","63.4","91","29.95","195","0","0","0.00","0.00"
"03:04:59","66.1","63.4","91","29.95","195","0","0","0.00","0.00"
"03:09:58","66","63.3","91","29.95","195","0","0","0.00","0.00"
"03:14:57","65.9","63.2","91","29.96","195","0","0","0.00","0.00"
"03:19:57","65.8","63.1","91","29.96","195","0","0","0.00","0.00"
"03:24:56","65.7","63","91","29.96","195","0","0","0.00","0.00"
"03:29:59","65.6","62.9","91","29.96","195","0","0","0.00","0.00"
"03:34:58","65.6","62.9","91","29.95","195","0","0","0.00","0.00"
"03:39:58","65.6","62.9","91","29.95","195","0","0","0.00","0.00"
"03:44:56","65.6","62.9","91","29.95","195","0","0","0.00","0.00"
"03:49:56","65.5","62.9","91.2","29.95","195","0","0","0.00","0.00"
"03:54:59","65.5","63.1","92","29.95","195","0","0","0.00","0.00"
"03:59:58","65.4","63","92","29.95","195","0","0","0.00","0.00"
"04:04:57","65.3","62.9","92","29.95","195","0","0","0.00","0.00"
"04:09:56","65.1","62.7","92","29.95","195","0","0","0.00","0.00"
"04:14:59","64.9","62.5","92","29.96","195","0","0","0.00","0.00"
"04:19:58","64.8","62.4","92","29.96","195","0","0","0.00","0.00"
"04:24:57","64.7","62.3","92","29.96","195","0","0","0.00","0.00"
"04:29:56","64.6","62.4","92.9","29.96","195","0","0","0.00","0.00"
"04:34:58","64.5","62.4","93","29.96","195","0","0","0.00","0.00"
"04:39:59","64.5","62.4","93","29.96","195","0","0","0.00","0.00"
"04:44:58","64.4","62.3","93","29.96","195","0","0","0.00","0.00"
"04:49:57","64.3","62.2","93","29.96","195","0","0","0.00","0.00"
"04:54:56","64.1","62","93","29.96","195","0","0","0.00","0.00"
"04:59:55","64","62.1","93.5","29.97","195","0","0","0.00","0.00"
"05:04:59","64","62.2","94","29.97","195","0","0","0.00","0.00"
"05:09:57","64","62.2","94","29.97","195","0","0","0.00","0.00"
"05:14:57","64","62.2","94","29.97","195","0","0","0.00","0.00"
"05:19:56","64","62.2","94","29.97","195","0","0","0.00","0.00"
"05:24:59","63.9","62.1","94","29.97","195","0","0","0.00","0.00"
"05:29:58","63.8","62","94","29.97","195","0","0","0.00","0.00"
"05:34:57","63.7","61.9","94","29.97","195","0","0","0.00","0.00"
"05:39:58","63.7","61.9","94","29.97","195","0","0","0.00","0.00"
"05:44:57","63.6","61.8","94","29.97","195","0","0","0.00","0.00"
"05:49:56","63.5","61.8","94.4","29.97","195","0","0","0.00","0.00"
"05:54:59","63.5","62","95","29.97","195","0","0","0.00","0.00"
"05:59:58","63.5","62","95","29.98","195","0","0","0.00","0.00"
"06:04:58","63.4","61.9","95","29.98","195","0","0","0.00","0.00"
"06:09:57","63.4","61.9","95","29.98","195","0","0","0.00","0.00"
"06:14:57","63.4","61.9","95","29.98","195","0","0","0.00","0.00"
"06:19:56","63.3","61.8","95","29.98","195","0","0","0.00","0.00"
"06:24:59","63.3","61.8","95","29.98","195","0","0","0.00","0.00"
"06:29:58","63.3","61.8","95","29.98","195","0","0","0.00","0.00"
"06:34:58","63.3","61.8","95","29.98","195","0","0","0.00","0.00"
"06:39:57","63.3","61.8","95","29.98","195","0","0","0.00","0.00"
"06:44:59","63.4","61.9","95","29.98","195","0","0","0.00","0.00"
"06:49:58","63.4","61.9","95","29.98","195","0","0","0.00","0.00"
"06:54:56","63.6","62.1","95.3","29.98","195","0","0","0.00","0.00"
"06:59:58","63.7","62.5","96","29.99","195","0","0","0.00","0.00"
"07:04:57","63.8","62.6","96","29.99","195","0","0","0.00","0.00"
"07:09:56","63.9","62.7","96","29.99","195","0","0","0.00","0.00"
"07:14:59","64.2","63","96","30.00","195","0","0","0.00","0.00"
"07:19:57","64.6","63.4","96","30.00","195","0","0","0.00","0.00"
"07:24:59","65","63.8","96","30.00","195","0","0","0.00","0.00"
"07:29:57","65.4","64.1","95.5","30.00","195","0","0","0.00","0.00"
"07:34:59","65.9","64.4","95","29.99","195","0","0","0.00","0.00"
"07:39:58","66.5","64.9","94.4","29.99","195","0","0","0.00","0.00"
"07:44:56","67.2","65.4","93.8","29.99","195","0","0","0.00","0.00"
"07:49:59","68","65.8","92.7","29.99","195","0","0","0.00","0.00"
"07:54:57","68.9","66.2","91.2","29.99","195","0","0","0.00","0.00"
"07:59:56","69.9","67.2","91","30.00","195","0","0","0.00","0.00"
"08:04:59","70.7","67.6","90.1","30.00","195","0","0","0.00","0.00"
"08:09:57","71.3","67.7","88.6","30.00","195","0","0","0.00","0.00"
"08:14:58","71.8","67.5","86.3","30.00","195","0","0","0.00","0.00"
"08:19:56","72.5","67.6","84.8","30.00","195","0","0","0.00","0.00"
"08:24:58","73.3","68.1","83.8","30.00","195","0","0","0.00","0.00"
"08:29:57","74.1","67.9","81","30.00","195","0","0","0.00","0.00"
"08:34:58","74.9","67.7","78.4","30.00","195","0.9","3.6","0.00","0.00"
"08:39:58","75.6","68","77.3","30.00","195","0.4","2.4","0.00","0.00"
"08:44:59","76.3","68.2","76","30.00","195","0.2","2.4","0.00","0.00"
"08:49:58","77.1","68.7","75.3","30.00","195","0.8","2.4","0.00","0.00"
"08:54:56","77.8","69.2","74.9","30.00","195","0.4","2.4","0.00","0.00"
"08:59:58","78.5","69.3","73.5","30.00","195","0.5","2.4","0.00","0.00"
"09:04:58","79","68.7","70.8","30.00","252","1.6","4.8","0.00","0.00"
"09:09:57","79.5","68.5","69.2","30.00","293","1","3.6","0.00","0.00"
"09:14:57","80.1","68.5","67.9","30.00","261","0.9","3.6","0.00","0.00"
"09:19:56","80.7","68.3","66.2","30.00","299","1.8","4.8","0.00","0.00"
"09:24:56","81.2","68.1","64.4","30.00","314","2.4","6","0.00","0.00"
"09:29:58","81.5","67.3","62.1","30.00","322","2.7","7.2","0.00","0.00"
"09:34:57","81.7","67.4","61.8","30.00","340","2.4","7.2","0.00","0.00"
"09:39:57","82","68.3","63.2","30.00","277","2.3","6.9","0.00","0.00"
"09:44:56","82.5","68","61.7","30.00","291","2.5","7.2","0.00","0.00"
"09:49:56","82.8","68.4","62","30.00","274","2","7.2","0.00","0.00"
"09:54:59","83","68.2","61","30.00","289","2.6","6","0.00","0.00"
"09:59:59","83","68.5","61.7","30.00","266","2.7","7.2","0.00","0.00"
"10:04:59","83.2","68.4","61.1","30.00","323","3","8.4","0.00","0.00"
"10:09:59","83.3","67.9","60","30.00","358","4","10.8","0.00","0.00"
"10:14:58","83.5","67.9","59.5","30.00","340","3","8.4","0.00","0.00"
"10:19:58","83.7","67.8","58.8","30.00","308","3.2","8.1","0.00","0.00"
"10:24:57","83.9","67.7","58.3","30.00","330","4","8.4","0.00","0.00"
"10:29:56","84.2","67.8","58.1","30.00","325","2.9","9.6","0.00","0.00"
"10:34:59","84.5","68.4","58.6","29.99","322","2.2","6","0.00","0.00"
"10:39:59","84.9","68.2","57.4","29.99","356","2.5","5.8","0.00","0.00"
"10:44:57","85.1","68.7","58","29.99","327","0.9","3.6","0.00","0.00"
"10:49:58","85.5","68.8","57.6","29.99","324","2.7","8.4","0.00","0.00"
"10:54:56","85.8","68.3","56.1","29.99","335","3.4","10.8","0.00","0.00"
"10:59:58","85.9","68.1","55.3","29.99","336","2.8","7.2","0.00","0.00"
"11:04:58","85.8","67.6","54.8","29.99","287","2.3","6","0.00","0.00"
"11:09:58","85.6","68.3","56.4","29.99","328","3.4","9.6","0.00","0.00"
"11:14:58","85.7","68.4","56.3","29.99","346","3.9","8.1","0.00","0.00"
"11:19:57","86","68.5","56.2","29.99","334","3.1","7.2","0.00","0.00"
"11:24:59","86.2","67.5","53.8","29.99","338","2.3","7.2","0.00","0.00"
"11:29:58","86.6","68.4","54.8","29.99","304","2.5","7.2","0.00","0.00"
"11:34:56","87.3","68.8","54.3","29.99","210","2.2","3.6","0.00","0.00"
"11:39:57","87.7","68.4","53","29.99","234","3.3","6","0.00","0.00"
"11:44:59","88","69","53.6","29.99","271","1.7","4.8","0.00","0.00"
"11:49:59","87.9","67.9","51.7","29.98","296","2.9","6","0.00","0.00"
"11:54:58","87.7","66.8","50.2","29.98","233","3.2","6","0.00","0.00"
"11:59:57","87.6","65.5","47.9","29.98","290","3","6","0.00","0.00"
"12:04:58","87.4","64.5","46.7","29.98","224","1.2","4.8","0.00","0.00"
"12:09:57","87.5","65.5","48.3","29.98","217","3.2","6","0.00","0.00"
"12:14:57","87.6","66.3","49.5","29.98","209","2.8","6","0.00","0.00"
"12:19:57","88.4","66.6","48.7","29.98","199","2.7","6","0.00","0.00"
"12:24:56","88.7","67","48.8","29.98","229","2.7","7.2","0.00","0.00"
"12:29:59","88.6","66","47.3","29.98","222","4.2","10.8","0.00","0.00"
"12:34:58","88.3","67","49.5","29.98","268","1.9","5.8","0.00","0.00"
"12:39:58","88","65.3","47.1","29.98","330","2.1","6","0.00","0.00"
"12:44:57","88","66.6","49.3","29.98","240","2.9","7.2","0.00","0.00"
"12:49:57","88.1","66.2","48.3","29.98","178","3.1","7.2","0.00","0.00"
"12:54:56","88.3","67.1","49.7","29.98","173","1.3","3.6","0.00","0.00"
"12:59:59","88.4","66.2","48","29.98","215","2.1","6","0.00","0.00"
"13:04:59","88.5","66.2","47.9","29.97","228","3.4","7.2","0.00","0.00"
"13:09:59","88.9","66.9","48.5","29.97","284","2.4","6","0.00","0.00"
"13:14:59","88.5","66.5","48.3","29.97","222","2.6","7.2","0.00","0.00"
"13:19:59","89","67.2","48.9","29.96","256","2.8","6.9","0.00","0.00"
"13:24:58","89","66.2","47.2","29.96","288","3.9","8.4","0.00","0.00"
"13:29:57","89.2","67.1","48.3","29.96","227","2.5","6","0.00","0.00"
"13:34:56","88.8","66.7","48.2","29.95","216","3.8","10.8","0.00","0.00"
"13:39:56","89.3","67.2","48.3","29.95","171","3.4","10.8","0.00","0.00"
"13:44:59","89.2","65.1","45.2","29.95","206","3","6","0.00","0.00"
"13:49:58","88.9","65.5","46.1","29.95","187","3.3","9.6","0.00","0.00"
"13:54:57","89","65.8","46.4","29.95","181","4.3","10.8","0.00","0.00"
"13:59:57","90","65.5","44.6","29.95","196","5.4","15","0.00","0.00"
"14:04:57","90.2","64.7","43.1","29.95","240","3.5","10.8","0.00","0.00"
"14:09:57","90.4","65.1","43.4","29.95","205","3","8.4","0.00","0.00"
"14:14:57","90.2","64.6","42.9","29.95","135","3","8.4","0.00","0.00"
"14:19:56","89.9","64.9","43.7","29.95","196","5.2","12","0.00","0.00"
"14:24:59","90","64.1","42.4","29.95","202","5.2","8.4","0.00","0.00"
"14:29:58","90.3","65","43.4","29.95","232","3.5","9.6","0.00","0.00"
"14:34:57","90.5","65.1","43.3","29.95","207","3.4","8.4","0.00","0.00"
"14:39:58","90","65.4","44.4","29.95","213","3.6","8.4","0.00","0.00"
"14:44:57","90","64.2","42.5","29.95","238","3.1","6.9","0.00","0.00"
"14:49:56","89.4","64.1","43.3","29.95","284","4.9","12","0.00","0.00"
"14:54:59","90","66.2","45.5","29.95","274","3.7","11.5","0.00","0.00"
"14:59:58","91.1","66.6","44.6","29.95","188","3.7","8.4","0.00","0.00"
"15:04:59","90.7","66.3","44.8","29.95","203","3.7","7.2","0.00","0.00"
"15:09:59","90.6","65.9","44.3","29.95","248","3","7.2","0.00","0.00"
"15:14:58","91.1","67.3","45.9","29.95","193","3.9","7.2","0.00","0.00"
"15:19:58","91.7","65.4","42.1","29.95","243","3.7","7.2","0.00","0.00"
"15:24:57","91.5","64.1","40.4","29.95","247","2.7","6","0.00","0.00"
"15:29:56","91.2","65.1","42.3","29.95","201","2.5","7.2","0.00","0.00"
"15:34:59","91.6","66.2","43.3","29.94","222","4.4","10.8","0.00","0.00"
"15:39:59","91.7","66.4","43.6","29.94","201","3.6","7.2","0.00","0.00"
"15:44:58","91.7","66.1","43.1","29.94","315","3","7.2","0.00","0.00"
"15:49:57","91.8","67.2","44.7","29.94","235","4.4","10.8","0.00","0.00"
"15:54:57","91.9","66.4","43.4","29.94","256","3.8","10.4","0.00","0.00"
"15:59:56","92.1","66.7","43.6","29.94","255","3.1","7.2","0.00","0.00"
"16:04:56","91.9","67.1","44.3","29.94","234","3.7","10.8","0.00","0.00"
"16:09:56","91.6","65.8","42.8","29.94","174","4.5","15","0.00","0.00"
"16:14:59","91.5","66","43.2","29.94","231","4.3","9.2","0.00","0.00"
"16:19:59","91.7","64.8","41.2","29.93","167","4","8.4","0.00","0.00"
"16:24:58","91.7","64.9","41.2","29.93","208","3.2","8.4","0.00","0.00"
"16:29:58","91.5","63.8","40","29.93","236","4.4","13.2","0.00","0.00"
"16:34:57","91.5","64.6","41.2","29.93","282","1.9","6","0.00","0.00"
"16:39:57","91.8","64.5","40.8","29.93","193","3.5","8.4","0.00","0.00"
"16:44:56","92","64.7","40.7","29.93","228","3.3","8.4","0.00","0.00"
"16:49:59","91.9","64.7","40.9","29.93","183","2.7","8.4","0.00","0.00"
"16:54:58","92","65.8","42.4","29.93","209","3","9.6","0.00","0.00"
"16:59:57","92","65.4","41.8","29.93","210","3.1","6","0.00","0.00"
"17:04:58","91.5","64.7","41.4","29.92","212","3.6","7.2","0.00","0.00"
"17:09:57","91.3","64.7","41.7","29.92","219","3.9","7.2","0.00","0.00"
"17:14:58","91.1","64.4","41.4","29.92","195","3.7","7.2","0.00","0.00"
"17:19:57","91.2","64.3","41.2","29.92","213","2","6","0.00","0.00"
"17:24:56","91.4","65.9","43.2","29.92","206","3.3","9.6","0.00","0.00"
"17:29:59","91.3","64.6","41.4","29.92","209","3.9","9.2","0.00","0.00"
"17:34:58","91.1","65.1","42.4","29.92","192","2.7","7.2","0.00","0.00"
"17:39:57","91","63.8","40.7","29.92","186","3.2","6.9","0.00","0.00"
"17:44:56","90.9","64.8","42.3","29.92","202","1.3","3.6","0.00","0.00"
"17:49:59","90.9","64.4","41.7","29.92","221","2.4","4.8","0.00","0.00"
"17:54:58","90.7","64.8","42.6","29.92","192","2.8","7.2","0.00","0.00"
"17:59:58","90.3","64.1","42.1","29.92","208","3","6.9","0.00","0.00"
"18:04:58","90","64.6","43.2","29.91","215","3.2","6","0.00","0.00"
"18:09:58","89.8","64.4","43.1","29.91","201","3.2","7.2","0.00","0.00"
"18:14:57","89.6","64.3","43.4","29.91","182","3.4","6.9","0.00","0.00"
"18:19:57","89.4","64.1","43.1","29.91","175","3.1","6","0.00","0.00"
"18:24:56","89.2","64.4","43.9","29.91","214","2.5","4.8","0.00","0.00"
"18:29:59","88.9","65.4","45.9","29.91","225","2.6","7.2","0.00","0.00"
"18:34:57","88.4","65.1","46.2","29.91","217","3.1","8.4","0.00","0.00"
"18:39:57","88.4","64.9","45.9","29.91","200","3.8","8.4","0.00","0.00"
"18:44:56","88.3","65","46.2","29.91","189","4.5","12","0.00","0.00"
"18:49:56","88.2","65","46.3","29.90","199","3.9","7.2","0.00","0.00"
"18:54:59","88","64.9","46.4","29.90","216","3.1","6.9","0.00","0.00"
"18:59:58","87.7","64.4","46.1","29.91","190","2.6","5.8","0.00","0.00"
"19:04:58","87.5","64.2","45.9","29.91","194","2.1","4.8","0.00","0.00"
"19:09:58","87.4","64.7","46.9","29.91","169","2.9","6","0.00","0.00"
"19:14:59","87.3","64.2","46.3","29.91","218","3.4","8.4","0.00","0.00"
"19:19:58","87.2","64.1","46.5","29.91","204","3.1","8.1","0.00","0.00"
"19:24:58","87.1","64.3","46.8","29.91","203","2.6","4.8","0.00","0.00"
"19:29:58","87","64.2","46.9","29.91","200","2.7","7.2","0.00","0.00"
"19:34:57","86.8","63.9","46.6","29.91","203","2.3","6.9","0.00","0.00"
"19:39:58","86.6","64.1","47.2","29.91","206","1.8","3.6","0.00","0.00"
"19:44:58","86.4","64.3","47.8","29.91","206","1.4","3.6","0.00","0.00"
"19:49:58","86.2","64.4","48.2","29.91","206","1.1","3.6","0.00","0.00"
"19:54:57","86","64.6","49","29.91","207","1.1","3.6","0.00","0.00"
"19:59:58","85.7","64.4","49.1","29.91","207","1.6","3.6","0.00","0.00"
"20:04:58","85.4","64.9","50.3","29.91","207","0.5","2.4","0.00","0.00"
"20:09:58","85.1","65","51.2","29.91","207","0.3","2.4","0.00","0.00"
"20:14:59","84.6","64.7","51.3","29.91","207","0.6","2.4","0.00","0.00"
"20:19:56","84.1","64.6","52","29.90","207","0.4","2.4","0.00","0.00"
"20:24:56","83.7","64.4","52.3","29.90","207","0.1","1.2","0.00","0.00"
"20:29:57","83.2","64.6","53.5","29.90","207","0","0","0.00","0.00"
"20:34:57","82.7","64.9","55","29.90","207","0","1.2","0.00","0.00"
"20:39:58","82.2","64.6","55.4","29.90","207","0","1.2","0.00","0.00"
"20:44:58","81.6","65.2","57.7","29.90","207","0","0","0.00","0.00"
"20:49:59","80.8","65.5","59.8","29.90","207","0","0","0.00","0.00"
"20:54:59","80.1","65.3","60.9","29.90","207","0.1","1.2","0.00","0.00"
"20:59:56","79.4","65.1","61.5","29.90","207","0","0","0.00","0.00"
"21:04:56","78.8","64.8","62.1","29.90","207","0.2","1.2","0.00","0.00"
"21:09:58","78.3","64.9","63.6","29.90","207","0","1.2","0.00","0.00"
"21:14:58","77.8","65","64.7","29.90","207","0","0","0.00","0.00"
"21:19:57","77.4","65.1","66","29.90","207","0","0","0.00","0.00"
"21:24:57","77.1","65","66.4","29.90","207","0","0","0.00","0.00"
"21:29:56","76.7","65.3","68","29.91","207","0","0","0.00","0.00"
"21:34:59","76.4","65.1","68","29.91","207","0","0","0.00","0.00"
"21:39:59","76.1","64.8","68","29.91","207","0","0","0.00","0.00"
"21:44:58","75.8","65.1","69.5","29.91","207","0","0","0.00","0.00"
"21:49:57","75.6","65.3","70.4","29.91","207","0","0","0.00","0.00"
"21:54:56","75.4","65.4","71.2","29.91","207","0","0","0.00","0.00"
"21:59:56","75.2","65.6","72","29.91","207","0","0","0.00","0.00"
"22:04:59","75","65.7","72.7","29.91","207","0","0","0.00","0.00"
"22:09:57","74.7","65.4","72.7","29.91","207","0","0","0.00","0.00"
"22:14:57","74.4","65.4","73.3","29.92","207","0","0","0.00","0.00"
"22:19:57","74.3","65.6","74.3","29.92","207","0.1","1.2","0.00","0.00"
"22:24:56","74.1","65.7","75.1","29.92","207","0.3","1.2","0.00","0.00"
"22:29:59","73.9","65.9","76","29.92","207","0","0","0.00","0.00"
"22:34:58","73.8","65.8","76","29.92","207","0","0","0.00","0.00"
"22:39:58","73.6","65.6","76","29.92","207","0","0","0.00","0.00"
"22:44:56","73.3","65.4","76.1","29.92","207","0","0","0.00","0.00"
"22:49:56","73.1","65.6","77.3","29.92","207","0","0","0.00","0.00"
"22:54:58","72.9","65.6","78","29.92","207","0","0","0.00","0.00"
"22:59:57","72.8","65.5","78","29.92","207","0","0","0.00","0.00"
"23:04:57","72.8","65.5","78","29.92","207","0","0","0.00","0.00"
"23:09:59","72.6","65.5","78.6","29.92","207","0","0","0.00","0.00"
"23:14:56","72.5","65.6","79","29.92","207","0","0","0.00","0.00"
"23:19:59","72.3","65.7","79.7","29.92","207","0","0","0.00","0.00"
"23:24:59","72.1","65.6","80","29.92","207","0","0","0.00","0.00"
"23:29:58","72","65.5","80.2","29.92","207","0","0","0.00","0.00"
"23:34:57","71.8","65.5","80.4","29.91","207","0","0","0.00","0.00"
"23:39:57","71.6","65.5","81","29.91","207","0","0","0.00","0.00"
"23:44:56","71.4","65.3","81","29.91","207","0","0","0.00","0.00"
"23:49:56","71.3","65.2","81","29.90","207","0","0","0.00","0.00"
"23:54:59","71.2","65.1","81","29.90","207","0","0","0.00","0.00"
